Preview of NWS' New Version of Forecast
This preview is not operational and should not be used for support decisions.
Latest weather observations around

Prattville - Grouby Field (K1A9)

Using International System of Units (Switch to English Units)
Date/ Time (CDT) Wind (kph) Vis. (km) Weather Sky Cond. Temp (°C) Rel. Humidity Wind Chill (°C) Heat Index (°C) Pressure Precip. (cm)
Air Dwpt 6 hour Altimeter (hPa) Sea level (hPa) 1 hr 3 hr 6 hr
Max Min
May 26 23:35 Calm 16.09 Clear CLR 21 21     100%     1012.9        
May 26 23:15 Calm 16.09 Clear CLR 21 21     100%   22 1012.9        
May 26 22:55 Calm 16.09 Clear CLR 21 21     100%   22 1012.9        
May 26 22:35 Calm 16.09 Clear CLR 21 21     100%   22 1013.2        
May 26 22:15 Calm 16.09 Partly Cloudy SCT049 22 22     100%   23 1013.2        
May 26 21:55 Calm 16.09 Mostly Cloudy BKN049 22 22     100%   23 1012.9     0  
May 26 21:35 Calm 16.09 Mostly Cloudy BKN049 22 22     99%   23 1012.5        
May 26 21:15 Calm 16.09 Mostly Cloudy BKN049 BKN065 23 21     89%   24 1012.2        
May 26 20:55 Calm 16.09 Mostly Cloudy SCT047 BKN050 BKN065 24 21     86%   24 1012.2        
May 26 20:35 S 8 16.09 Mostly Cloudy SCT045 BKN055 BKN070 24 21     84%   25 1012.2        
May 26 20:15 S 9 16.09 Mostly Cloudy BKN043 BKN070 BKN120 24 21     85%   25 1011.9        
May 26 19:55 S 8 16.09 Cloudy BKN041 BKN050 OVC120 24 22     86%   25 1011.5   0    
May 26 19:35 SE 15 11.27 Light Rain SCT038 BKN055 OVC090 23 22     94%   24 1011.2   0    
May 26 19:15 SE 22 16.09 Light Rain SCT036 BKN044 OVC065 25 19     69%   26 1010.8        
May 26 18:55 Calm 16.09 Partly Cloudy SCT050 28 22     68%   31 1010.5        
May 26 18:35 Calm 16.09 Clear CLR 29 22     66%   31 1010.5        
May 26 18:15 Calm 16.09 Clear CLR 29 22     67%   31 1010.5        
May 26 17:55 Calm 16.09 Clear CLR 28 21     67%   31 1010.5        
May 26 17:35 Calm 16.09 Clear CLR 29 20     61%   31 1010.5        
May 26 17:15 Calm 16.09 Clear CLR 29 21     60%   31 1010.5        
May 26 16:55 Calm 16.09 Clear CLR 29 21     61%   31 1010.8        
May 26 16:35 ESE 8 16.09 Clear CLR 29 20     58%   31 1010.5        
May 26 16:15 SSE 5 16.09 Clear CLR 29 20     59%   31 1010.8        
May 26 15:55 Calm 16.09 Partly Cloudy SCT040 SCT110 29 21     61%   31 1010.8        
May 26 15:35 Calm 16.09 Cloudy SCT041 OVC110 28 21     65%   31 1010.8        
May 26 15:15 SSE 8 16.09 Mostly Cloudy BKN039 BKN110 29 21     64%   31 1011.2        
May 26 14:55 Calm 16.09 Mostly Cloudy SCT039 SCT075 BKN095 30 21     61%   32 1011.2        
May 26 14:35 Calm 16.09 Cloudy SCT045 BKN070 OVC110 29 21     63%   31 1011.5        
May 26 14:15 ENE 8 16.09 Partly Cloudy SCT047 SCT060 29 21     62%   32 1011.9        
May 26 13:55 NE 5 16.09 Partly Cloudy SCT036 SCT042 29 22     65%   32 1012.2        
May 26 13:35 ENE 8 16.09 Partly Cloudy SCT036 SCT043 30 21     58%   32 1012.2        
May 26 13:15 ENE 8 16.09 Partly Cloudy SCT036 SCT044 SCT050 29 20     60%   31 1012.5        
May 26 12:55 Calm 16.09 Partly Cloudy SCT036 SCT044 SCT050 29 21     62%   31 1012.9        
May 26 12:35 S 8 16.09 Mostly Cloudy BKN034 29 21     62%   31 1013.2        
May 26 12:15 Calm 16.09 Partly Cloudy SCT032 29 21     64%   31 1013.6        
May 26 11:55 S 8 16.09 Mostly Cloudy SCT030 BKN040 28 21     65%   30 1013.6        
May 26 11:35 Calm 16.09 Partly Cloudy SCT030 SCT040 27 21     68%   29 1013.9        
May 26 11:15 Calm 16.09 Partly Cloudy SCT026 28 21     67%   30 1014.2        
May 26 10:55 Calm 16.09 Mostly Cloudy SCT022 BKN028 27 21     71%   28 1014.2        
May 26 10:35 SW 5 16.09 Partly Cloudy SCT022 SCT028 26 22     78%   26 1014.2        
May 26 10:15 Calm 11.27 Partly Cloudy SCT009 SCT026 25 21     79%   26 1014.6        
May 26 09:55 Calm 8.05 Fog/Mist SCT009 SCT026 24 22     86%   25 1014.6        
May 26 09:35 Calm 8.05 Fog/Mist SCT007 23 22     92%   24 1014.9        
May 26 09:15 Calm 11.27 Partly Cloudy SCT005 23 22     95%   23 1014.9        
May 26 08:55 Calm 11.27 Cloudy OVC005 22 22     99%   23 1014.6        
May 26 08:35 Calm 8.05 Fog/Mist OVC003 21 21     100%   22 1014.9        
May 26 08:15 Calm 6.44 Fog/Mist OVC003 21 21     100%   22 1014.6        
May 26 07:55 Calm 3.22 Fog/Mist OVC003 21 21     100%     1014.6        
May 26 07:35 Calm 2.01 Fog/Mist OVC003 21 21     100%     1014.2        
May 26 07:15 Calm 0.4 Fog OVC003 20 20     100%     1014.2        
May 26 06:55 Calm 0.4 Fog OVC003 20 20     100%     1013.9        
May 26 06:35 Calm 0.4 Fog OVC003 20 20     100%     1013.6        
May 26 06:15 Calm 0.4 Fog OVC003 20 20     100%     1013.2        
May 26 05:55 Calm 0.4 Fog OVC003 20 20     100%     1012.9        
May 26 05:35 Calm 0.4 Fog OVC003 20 20     100%     1012.5        
May 26 05:15 Calm 0.4 Fog OVC003 20 20     100%     1012.5        
May 26 04:55 Calm 4.83 Fog/Mist OVC003 20 20     100%     1012.5        
May 26 04:35 Calm 6.44 Fog/Mist OVC003 21 21     100%     1012.5        
May 26 04:15 Calm 1.61 Fog/Mist OVC003 21 21     100%     1012.5        
May 26 03:55 Calm 11.27 Cloudy OVC003 21 21     100%     1012.5        
May 26 03:35 Calm 11.27 Cloudy OVC003 21 21     100%     1012.5        
May 26 03:15 Calm 4.83 Fog/Mist OVC003 21 21     100%     1012.9        
May 26 02:55 Calm 1.21 Fog/Mist OVC003 21 21     100%     1012.9        
May 26 02:35 Calm 2.01 Fog/Mist OVC003 21 21     100%     1012.9        
May 26 02:15 Calm 3.22 Fog/Mist OVC003 21 21     100%   22 1013.2        
May 26 01:55 Calm 8.05 Fog/Mist OVC003 21 21     100%   22 1013.6        
May 26 01:35 Calm 11.27 Cloudy OVC003 21 21     100%   22 1013.6        
May 26 01:15 Calm 4.83 Fog/Mist OVC003 21 21     100%   22 1013.6        
May 26 00:55 Calm 4.83 Fog/Mist OVC003 21 21     100%   22 1013.6        
May 26 00:35 Calm 8.05 Fog/Mist OVC003 21 21     100%     1013.9        
May 26 00:15 Calm 11.27 Cloudy BKN003 OVC007 21 21     100%     1013.9        
May 25 23:55 Calm 1.21 Fog/Mist BKN005 21 21     100%     1013.9        
May 25 23:35 Calm 8.05 Fog/Mist CLR 21 21     100%     1013.9        
May 25 23:15 Calm 8.05 Fog/Mist SCT060 21 21     100%     1013.9        
May 25 22:55 Calm 4.02 Fog/Mist SCT060 21 21     100%   22 1014.2        
May 25 22:35 Calm 11.27 Partly Cloudy SCT100 SCT120 22 22     100%   22 1014.2        
May 25 22:15 Calm 11.27 Cloudy BKN100 OVC120 22 22     100%   23 1014.2        
May 25 21:55 Calm 16.09 Cloudy SCT100 OVC120 22 22     100%   23 1014.6        
May 25 21:35 Calm 16.09 Light Rain SCT100 BKN120 22 22     100%   23 1014.6        
May 25 21:15 Calm 16.09 Clear CLR 22 22     100%   23 1014.6        
May 25 20:55 Calm 16.09 Clear CLR 22 22     99%   23 1014.2        
May 25 20:35 Calm 16.09 Partly Cloudy SCT120 23 22     95%   24 1014.2        
May 25 20:15 Calm 16.09 Light Drizzle SCT120 23 22     93%   24 1013.9        
May 25 19:55 S 5 16.09 Clear CLR 23 21     90%   24 1013.9        
May 25 19:35 SSE 5 16.09 Clear CLR 24 22     89%   25 1013.6        
May 25 19:15 SSE 8 16.09 Partly Cloudy SCT120 25 22     83%   25 1013.6        
May 25 18:55 Calm 16.09 Partly Cloudy SCT120 25 21     80%   26 1013.2       1
May 25 18:35 Calm 16.09 Partly Cloudy SCT120 26 22     82%   27 1012.9        
May 25 18:15 Calm 16.09 Mostly Cloudy BKN120 26 23     86%   27 1012.5        
May 25 17:55 Calm 16.09 Partly Cloudy SCT120 26 23     85%   26 1012.9        
May 25 17:35 Calm 16.09 Partly Cloudy SCT120 26 23     86%   27 1012.9        
May 25 17:15 Calm 16.09 Mostly Cloudy BKN120 25 23     87%   26 1012.9        
May 25 16:55 Calm 16.09 Partly Cloudy SCT120 25 23     88%   26 1013.2        
May 25 16:35 NW 5 16.09 Partly Cloudy SCT120 24 23     90%   25 1013.6        
May 25 16:15 NW 9 16.09 Cloudy SCT010 OVC120 25 23     91%   26 1013.6        
May 25 15:55 N 5 16.09 Cloudy OVC110 25 23     89%   26 1013.9     1  
May 25 15:35 Calm 16.09 Cloudy OVC120 24 22     91%   24 1014.2        
May 25 15:15 Calm 16.09 Mostly Cloudy BKN120 24 22     90%   24 1014.6        
May 25 14:55 Calm 16.09 Mostly Cloudy SCT090 BKN120 23 22     98%   24 1014.9   0    
May 25 14:35 Calm 16.09 Light Rain SCT036 SCT050 OVC090 22 21     97%   23 1015.2   0    
May 25 14:15 Calm 11.27 Light Rain SCT041 BKN050 OVC080 21 21     99%   22 1015.2   0    
May 25 13:55 ENE 5 3.22 Heavy Rain SCT035 BKN042 OVC050 21 20     97%     1015.6   1    
May 25 13:35 ENE 9 8.05 Heavy Rain SCT016 SCT039 OVC055 21 21     100%     1015.9   1    
May 25 13:15 NE 11 1.61 Heavy Rain BKN011 BKN016 OVC025 21 21     100%     1016.3   1    
May 25 12:55 N 9 16.09 Light Rain SCT009 BKN013 OVC031 22 21     94%   23 1016.3        
May 25 12:35 N 9 16.09 Cloudy BKN029 OVC036 23 20     82%   24 1015.9        
May 25 12:15 N 13 16.09 Cloudy OVC029 24 19     74%   25 1015.9        
May 25 11:55 Calm 16.09 Cloudy BKN025 BKN032 OVC055 28 22     70%   30 1015.6        
May 25 11:35 Calm 16.09 Mostly Cloudy BKN025 BKN035 BKN046 27 22     73%   30 1015.9        
May 25 11:15 Calm 16.09 Mostly Cloudy BKN023 BKN033 BKN040 27 23     75%   30 1016.3        
May 25 10:55 SE 5 16.09 Partly Cloudy SCT019 28 23     75%   30 1016.6        
May 25 10:35 ENE 5 16.09 Partly Cloudy SCT019 27 23     76%   30 1016.9        
May 25 10:15 Calm 16.09 Partly Cloudy SCT012 26 22     82%   26 1016.9        
May 25 09:55 Calm 16.09 Partly Cloudy SCT006 SCT011 25 23     87%   26 1016.9        
May 25 09:35 Calm 8.05 Fog/Mist BKN006 24 23     95%   25 1016.9        
May 25 09:15 Calm 11.27 Clear CLR 24 23     98%   25 1017.3        
May 25 08:55 Calm 16.09 Partly Cloudy SCT007 24 23     94%   24 1016.9        
May 25 08:35 Calm 16.09 Partly Cloudy SCT005 23 23     96%   24 1016.9        
May 25 08:15 Calm 16.09 Partly Cloudy SCT003 23 22     99%   24 1017.3        
May 25 07:55 Calm 16.09 Mostly Cloudy SCT003 BKN060 22 22     100%   23 1016.9        
May 25 07:35 Calm 16.09 Cloudy OVC060 21 21     100%     1016.9        
May 25 07:15 Calm 16.09 Mostly Cloudy BKN060 21 21     100%     1016.9        
May 25 06:55 Calm 11.27 Partly Cloudy SCT060 20 20     100%     1016.9        
May 25 06:35 Calm 8.05 Fog/Mist SCT070 20 20     100%     1016.9        
May 25 06:15 Calm 11.27 Clear CLR 19 19     100%     1016.6        
May 25 05:55 Calm 0.8 Fog BKN003 19 19     100%     1016.3        
May 25 05:35 Calm 0.8 Fog OVC003 20 20     100%     1016.3        
May 25 05:15 Calm 0.4 Fog OVC003 20 20     100%     1016.3        
May 25 04:55 Calm 0.8 Fog OVC003 20 20     100%     1016.3        
May 25 04:35 Calm 0.4 Fog OVC003 20 20     100%     1016.3        
May 25 04:15 Calm 0.4 Fog OVC003 20 20     100%     1016.3        
May 25 03:55 Calm 0.4 Fog OVC003 20 20     100%     1016.3        
May 25 03:35 Calm 0.4 Fog OVC003 20 20     100%     1016.3        
May 25 03:15 Calm 1.61 Fog/Mist OVC003 20 20     100%     1016.3        
May 25 02:55 Calm 2.41 Fog/Mist SCT003 20 20     100%     1016.3        
May 25 02:35 Calm 11.27 Clear CLR 20 20     100%     1016.3        
May 25 02:15 Calm 11.27 Clear CLR 20 20     100%     1016.3        
May 25 01:55 W 5 11.27 Clear CLR 21 21     100%     1016.6        
May 25 01:35 Calm 8.05 Fog/Mist CLR 20 20     100%     1016.6        
May 25 01:15 Calm 6.44 Fog/Mist CLR 21 21     100%     1016.9        
May 25 00:55 Calm 8.05 Fog/Mist CLR 20 20     100%     1017.3        
May 25 00:35 Calm 8.05 Fog/Mist CLR 21 21     100%     1017.6        
May 25 00:15 Calm 11.27 Clear CLR 21 21     100%     1017.6        
May 24 23:55 Calm 6.44 Fog/Mist SCT002 21 21     100%   22 1018        
May 24 23:35 Calm 2.01 Fog/Mist BKN002 21 21     100%   22 1018.3        
May 24 23:15 Calm 6.44 Fog/Mist SCT002 21 21     100%   22 1018.3        
May 24 22:55 Calm 4.83 Fog/Mist CLR 22 22     100%   22 1018.3        
May 24 22:35 Calm 11.27 Clear CLR 22 22     100%   23 1018.3        
May 24 22:15 Calm 11.27 Partly Cloudy SCT004 SCT120 22 22     100%   23 1018.3        
May 24 21:55 Calm 11.27 Cloudy BKN006 OVC120 22 22     100%   23 1018.6        
May 24 21:35 Calm 8.05 Light Rain BKN006 BKN095 BKN120 22 22     100%   23 1018        
May 24 21:15 Calm 8.05 Light Rain SCT090 SCT120 22 22     100%   23 1017.6        
May 24 20:55 Calm 11.27 Partly Cloudy SCT120 22 22     100%   23 1016.9        
May 24 20:35 Calm 11.27 Unknown Precipitation CLR 22 22     100%   23 1016.9        
May 24 20:15 Calm 11.27 Light Drizzle SCT120 22 22     100%   23 1016.6        
May 24 19:55 Calm 8.05 Light Drizzle CLR 22 22     100%   23 1016.3        
May 24 19:35 Calm 11.27 Light Rain SCT003 22 22     100%   23 1016.3        
May 24 19:15 Calm 16.09 Partly Cloudy SCT003 23 23     100%   23 1016.3        
May 24 18:55 Calm 16.09 Clear CLR 23 23     100%   23 1016.3       0
May 24 18:35 Calm 16.09 Clear CLR 23 22     99%   24 1016.3        
May 24 18:15 Calm 16.09 Clear CLR 23 23     100%   24 1016.6        
May 24 17:55 Calm 16.09 Clear CLR 23 23     100%   24 1016.6        
May 24 17:35 Calm 16.09 Clear CLR 23 23     100%   24 1016.9        
May 24 17:15 W 8 16.09 Partly Cloudy SCT004 23 23     100%   23 1016.9        
May 24 16:55 WSW 5 16.09 Partly Cloudy SCT004 22 22     100%   23 1016.9        
May 24 16:35 Calm 16.09 Light Drizzle SCT041 SCT049 22 22     100%   23 1017.3        
May 24 16:15 SSW 8 16.09 Light Rain SCT037 OVC045 22 22     99%   23 1017.3        
May 24 15:55 Calm 16.09 Light Rain SCT041 BKN048 OVC090 22 22     100%   23 1017.3     0  
May 24 15:35 Calm 16.09 Light Rain SCT075 OVC090 22 22     99%   23 1017.6        
May 24 15:15 W 5 16.09 Light Rain BKN100 22 22     99%   23 1017.3        
May 24 14:55 ENE 5 16.09 Partly Cloudy SCT010 SCT046 SCT065 21 21     100%   22 1016.9        
May 24 14:35 NNW 5 11.27 Light Rain SCT010 SCT046 BKN100 21 21     100%     1018        
May 24 14:15 N 5 16.09 Light Rain SCT007 SCT037 BKN110 21 21     100%     1018        
May 24 13:55 Calm 16.09 Drizzle SCT041 BKN050 BKN090 21 21     100%     1018   0    
Notice The following observation data may not be complete
May 24 13:35 W 11 16.09 Light Rain SCT090 OVC120   21      %     1018.3   0    
Notice The following observation data may not be complete
May 24 13:20 W 22 16.09 Light Rain SCT070 BKN090 OVC120   21      %     1018.3   0    
Notice The following observation data may not be complete
May 24 12:55 W 8 4.02 Heavy Rain SCT030 BKN070 OVC090   21      %     1018.6   2   2
Notice The following observation data may not be complete
May 24 12:35 E 9 2.82 Heavy Rain SCT010 BKN030 OVC049   20      %     1019   1    
Notice The following observation data may not be complete
May 24 12:15   4.83 Heavy Rain SCT012 BKN032 OVC040   20      %     1019   0    
May 24 11:55 N 18 16.09 Cloudy BKN030 OVC060 28 21     66%   30 1018.3        
May 24 11:35 Calm 16.09 Mostly Cloudy SCT030 SCT044 BKN060 30 22     64%   33 1018.3        
May 24 11:15 Calm 16.09 Cloudy SCT026 BKN032 OVC055 29 23     69%   33 1018.6        
May 24 10:55 Calm 16.09 Cloudy BKN024 OVC055 29 23     72%   32 1019        
May 24 10:35 Calm 16.09 Partly Cloudy SCT022 29 23     72%   33 1019        
May 24 10:15 NW 5 16.09 Clear CLR 27 23     76%   30 1019        
May 24 09:55 Calm 16.09 Clear CLR 26 23     81%   28 1019        
May 24 09:35 Calm 16.09 Clear CLR 25 23     86%   26 1019        
May 24 09:15 W 5 16.09 Partly Cloudy SCT006 24 22     89%   25 1019.3        
May 24 08:55 WNW 5 16.09 Mostly Cloudy BKN006 23 22     93%   24 1019.3        
May 24 08:35 Calm 16.09 Mostly Cloudy BKN004 BKN008 23 22     97%   24 1019.3        
May 24 08:15 W 5 16.09 Cloudy OVC004 22 22     100%   23 1019        
May 24 07:55 W 5 16.09 Cloudy OVC002 22 22     100%   23 1019        
May 24 07:35 W 5 11.27 Cloudy OVC002 21 21     100%   22 1018.6        
May 24 07:15 Calm 6.44 Fog/Mist OVC002 21 21     100%   22 1018.6        
May 24 06:55 Calm 6.44 Fog/Mist OVC002 21 21     100%     1018.6        
May 24 06:35 Calm 16.09 Partly Cloudy SCT002 21 21     100%     1018.6        
May 24 06:15 Calm 8.05 Fog/Mist BKN002 21 21     100%     1018.3        
May 24 05:55 Calm 8.05 Fog/Mist BKN002 21 21     100%     1018        
May 24 05:35 Calm 11.27 Mostly Cloudy BKN002 21 21     100%     1018        
May 24 05:15 W 5 6.44 Fog/Mist OVC002 21 21     100%   22 1017.6        
May 24 04:55 WNW 5 1.61 Fog/Mist OVC002 21 21     100%   22 1017.6        
May 24 04:40 WNW 5 1.21 Fog/Mist OVC002 21 21     100%   22 1017.3        
May 24 04:15 W 5 2.41 Fog/Mist OVC002 21 21     100%   22 1017.3        
May 24 03:55 Calm 1.61 Fog/Mist OVC002 21 21     100%   22 1016.9        
May 24 03:35 Calm 4.83 Fog/Mist OVC002 22 22     100%   22 1016.9        
May 24 03:15 Calm 8.05 Fog/Mist OVC002 22 22     100%   23 1016.9        
May 24 02:55 Calm 8.05 Fog/Mist OVC002 22 22     100%   23 1017.3        
May 24 02:35 W 5 8.05 Fog/Mist OVC002 22 22     100%   23 1017.3        
May 24 02:15 Calm 6.44 Fog/Mist OVC002 22 22     100%   23 1017.3        
May 24 01:55 WNW 5 6.44 Fog/Mist OVC004 23 23     100%   24 1017.6        
May 24 01:35 W 5 16.09 Cloudy OVC004 23 23     100%   24 1018        
May 24 01:15 Calm 16.09 Partly Cloudy SCT004 22 22     100%   23 1017.6        
May 24 00:55 Calm 16.09 Partly Cloudy SCT006 22 22     100%   23 1017.6        
May 24 00:35 Calm 16.09 Clear CLR 22 22     100%   23 1018        
May 24 00:15 Calm 16.09 Clear CLR 22 22     100%   23 1018        
May 23 23:55 Calm 16.09 Clear CLR 22 22     100%   23 1018        
May 23 23:35 Calm 16.09 Clear CLR 22 22     100%   23 1018.3        
May 23 23:15 Calm 16.09 Clear CLR 23 23     100%   24 1018.6        
May 23 22:55 Calm 16.09 Clear CLR 23 23     100%   24 1018.6        
May 23 22:35 Calm 16.09 Partly Cloudy SCT029 23 23     99%   25 1018.6        
May 23 22:15 Calm 16.09 Partly Cloudy SCT029 24 23     99%   25 1018.6        
May 23 21:55 Calm 16.09 Mostly Cloudy SCT029 BKN035 24 24     99%   25 1018.6        
May 23 21:35 Calm 16.09 Mostly Cloudy BKN034 BKN042 24 24     100%   25 1018.3        
May 23 21:15 Calm 16.09 Mostly Cloudy BKN032 BKN045 24 24     99%   25 1018        
May 23 20:55 Calm 16.09 Partly Cloudy SCT032 24 24     98%   25 1017.6        
May 23 20:35 Calm 16.09 Clear CLR 24 24     99%   25 1016.9        
May 23 20:15 Calm 16.09 Clear CLR 24 24     97%   26 1016.9        
May 23 19:55 Calm 16.09 Clear CLR 25 24     93%   26 1016.9        
May 23 19:35 Calm 16.09 Clear CLR 26 24     88%   28 1016.6        
May 23 19:15 Calm 16.09 Clear CLR 27 23     81%   29 1016.3        
May 23 18:55 Calm 16.09 Partly Cloudy SCT034 27 23     78%   30 1015.9        
May 15 12:15 ESE 9 16.09 Mostly Cloudy BKN039 BKN046 29 19     54%   30 1014.6        
May 15 11:15 ESE 13 16.09 Partly Cloudy SCT035 SCT120 28 19     59%   29 1015.2        
May 15 03:55 Calm 16.09 Clear CLR 19 18     98%     1014.6        
May 15 02:15 Calm 16.09 Clear CLR 19 19     99%     1013.9        
Notice The following observation data may not be complete
May 14 14:35   16.09 Partly Cloudy SCT080          %              
May 14 06:55 Calm 16.09 Clear CLR 17 17     98%     1016.6        
May 13 19:15 Calm 16.09 Clear CLR 27 18     59%   28 1015.9        
May 13 13:55 NW 8 16.09 Clear CLR 33 14     33%   32 1018.3        
May 13 07:55 Calm 16.09 Clear CLR 22 15     67%   22 1020        
Notice The following observation data may not be complete
May 13 06:55 Calm 16.09 Clear CLR   16      %     1019.7        
May 12 15:35 NE 5 16.09 Clear CLR 33 13     30%   32 1018.6        
May 12 13:15 Calm 16.09 Clear CLR 31 11     28%   30 1020        
May 12 08:55 Calm 16.09 Clear CLR 24 16     62%   24 1021.7        
May 12 03:35 Calm 16.09 Clear CLR 15 15     98%     1019        
May 12 02:55 Calm 16.09 Clear   15 15     99%     1018.6        
May 12 00:35 Calm 16.09 Clear CLR 17 16     93%     1019        
Notice The following observation data may not be complete
May 11 21:35 Calm 16.09 Clear CLR   18      %     1018.6        
Notice The following observation data may not be complete
May 11 20:55 Calm 16.09 Clear CLR   19      %     1018.3        
May 11 15:15 S 5 16.09 Clear CLR 31 14     37%   31 1018        
May 11 10:55 W 5 16.09 Clear CLR 28 18     55%   29 1021        
Jun 12 07:15 ENE 5 16.09 Partly Cloudy SCT011 SCT019 23 22     95%   24 1020.7        
Jun 12 04:55 Calm 16.09 Clear CLR 21 21     100%     1019.7        
Notice The following observation data may not be complete
Jun 12 03:35   16.09 Clear CLR          %              
Jun 12 02:55 Calm 16.09 Clear CLR 22 22     100%   22 1019.7        
Jun 12 02:35 Calm 16.09 Partly Cloudy SCT080 22 22     100%   23 1019.7        
Jun 11 22:55 Calm 16.09 Partly Cloudy SCT100 24 23     92%   25 1020.3        
Notice The following observation data may not be complete
Jun 11 22:15   16.09 Clear CLR          %              
Jun 11 18:15 Calm 16.09 Clear CLR 27 22     75%   29 1018        
Jun 11 14:35 E 17 16.09 Partly Cloudy SCT050 SCT065 32 21     52%   35 1019        
Jun 11 11:55 SE 15 16.09 Partly Cloudy SCT038 30 21     59%   33 1020.3        
Jun 11 02:35 Calm 16.09 Partly Cloudy SCT055 SCT065 19 18     97%     1018        
Jun 10 18:35 SE 8 16.09 Partly Cloudy SCT080 29 18     51%   30 1016.3        
Jun 10 12:55 SSE 9 16.09 Partly Cloudy SCT055 SCT075 28 16     47%   29 1018.3        
Jun 10 11:15 S 8 16.09 Clear CLR 29 17     48%   29 1018.6        
Jun 10 08:15 Calm 16.09 Clear CLR 24 20     81%   24 1018        
Jun 10 03:55 Calm 16.09 Mostly Cloudy SCT065 BKN075 19 18     96%     1015.6        
Notice The following observation data may not be complete
Jun 09 22:35   16.09 Mostly Cloudy BKN060 BKN075          %              
Jun 09 16:55 Calm 16.09 Partly Cloudy SCT075 29 15     43%   29 1012.9        
Jun 09 06:15 Calm 16.09 Clear CLR 16 16     100%     1013.6        
Notice The following observation data may not be complete
Jun 09 02:35   16.09 Clear CLR          %              
Jun 08 13:55 Calm 16.09 Mostly Cloudy SCT060 SCT070 BKN080 26 15     50%   26 1011.9        
Jun 08 07:55 Calm 16.09 Partly Cloudy SCT002 21 16     75%     1012.5        
Jun 08 07:15 Calm 16.09 Clear CLR 18 15     82%     1012.5        
Jun 08 03:15 Calm 16.09 Mostly Cloudy BKN060 18 14     76%     1010.2        
Jun 07 22:35 N 5 16.09 Cloudy SCT060 OVC090 22 16     72%   22 1010.8        
Jun 07 15:15 Calm 16.09 Cloudy BKN039 BKN044 OVC085 27 20     68%   29 1007.8        
Jun 07 14:55 E 21 16.09 Mostly Cloudy SCT037 BKN043 BKN048 28 21     65%   30 1007.8        
Jun 07 10:55 ENE 15 16.09 Clear   26 20     67%   27 1008.1        
Jun 07 07:35 NNE 5 16.09 Clear CLR 21 19     89%     1008.1        
Notice The following observation data may not be complete
Jun 06 08:35   16.09 Cloudy OVC006          %              
Notice The following observation data may not be complete
Jun 06 06:35   16.09 Cloudy SCT006 BKN024 OVC110          %              
Jun 05 15:15 S 8 16.09 Partly Cloudy SCT033 SCT060 SCT100 24 22     90%   25 1008.8        
Jun 05 14:35 S 8 16.09 Light Rain BKN100 BKN120 24 22     89%   25 1009.5